This is the latest recevied weather packets stored in our database for station/object KB2AHZ. If no packets are shown the sender has not sent any weather packets the latest 10 day(s).
| Time | Temp. | Humidity | Pressure | Rain* | Wind** | Luminosity | Snow |
|---|---|---|---|---|---|---|---|
| 1777238743 | 13.33° C | 81% | 1018.6 hPa | 0 mm | - | 115 W/m² | - |
| 1777238439 | 13.33° C | 83% | 1018.5 hPa | 0 mm | - | 82 W/m² | - |
| 1777238136 | 13.33° C | 82% | 1018.6 hPa | 0 mm | - | 87 W/m² | - |
| 1777237834 | 13.33° C | 81% | 1018.6 hPa | 0 mm | - | 112 W/m² | - |
| 1777237530 | 13.33° C | 81% | 1018.4 hPa | 0 mm | - | 107 W/m² | - |
| 1777237228 | 13.89° C | 82% | 1018.6 hPa | 0 mm | - | 137 W/m² | - |
| 1777236924 | 13.89° C | 81% | 1018.4 hPa | 0 mm | - | 109 W/m² | - |
| 1777236621 | 13.89° C | 81% | 1018 hPa | 0 mm | - | 137 W/m² | - |
| 1777236316 | 13.89° C | 81% | 1018.2 hPa | 0 mm | - | 125 W/m² | - |
| 1777236013 | 13.89° C | 79% | 1018.3 hPa | 0 mm | - | 131 W/m² | - |
| 1777235709 | 14.44° C | 79% | 1018.1 hPa | 0 mm | - | 89 W/m² | - |
| 1777235406 | 14.44° C | 79% | 1017.8 hPa | 0 mm | - | 149 W/m² | - |
| 1777235102 | 14.44° C | 80% | 1018.2 hPa | 0 mm | - | 293 W/m² | - |
| 1777234798 | 14.44° C | 79% | 1018.2 hPa | 0 mm | - | 209 W/m² | - |
| 1777234494 | 14.44° C | 79% | 1018.1 hPa | 0 mm | - | 332 W/m² | - |
| 1777234188 | 15° C | 79% | 1018.2 hPa | 0 mm | - | 302 W/m² | - |
| 1777233885 | 15° C | 79% | 1018.2 hPa | 0 mm | - | 343 W/m² | - |
| 1777233582 | 15° C | 79% | 1018 hPa | 0 mm | - | 299 W/m² | - |
| 1777233281 | 14.44° C | 80% | 1018 hPa | 0 mm | - | 334 W/m² | - |
| 1777232977 | 14.44° C | 78% | 1018.1 hPa | 0 mm | - | 470 W/m² | - |
| 1777232674 | 14.44° C | 79% | 1018.1 hPa | 0 mm | - | 433 W/m² | - |
| 1777232372 | 14.44° C | 80% | 1017.9 hPa | 0 mm | - | 440 W/m² | - |
| 1777232068 | 14.44° C | 80% | 1018.1 hPa | 0 mm | - | 352 W/m² | - |
| 1777231766 | 14.44° C | 81% | 1018.3 hPa | 0 mm | - | 342 W/m² | - |
| 1777231462 | 14.44° C | 80% | 1018.2 hPa | 0 mm | - | 257 W/m² | - |
* Rain latest hour (hover to see other rain measurements)
** Current wind speed in m/s (hover to see current wind gust speed)